Eiwamaru — JG5742 — position and weather

sailwx.info

Track history (hours):
 
Tides and Currents Weather Stations Pressure Air Temp Water Temp Dewpoint Dewpoint Depression Visibility Wind Speed Wind Dir Waves Ship Positions

Eiwamaru

Last reported at 2014-Nov-26 23:34 UTC. Time now 2014-Nov-27 00:18 UTC.
Position N 34°03' E 134°60'.

Length 80 m; draft 5.4 m.

Type: Tanker. MMSI: 431101045.

Date/timePositionNaut miles runAvg speedWind from/ knotsBaromVisibWave heightAir tempDewpointWater temp
2014-Nov-26 23:34N 34°03' E 134°60'  
2014-Nov-24 12:18N 34°02' E 135°02'7 1.0
2014-Nov-24 05:21N 34°07' E 135°08'0 0.0
2014-Nov-24 00:12N 34°07' E 135°08'0 0.0
2014-Nov-23 23:12N 34°07' E 135°08'0 0.0
2014-Nov-23 22:33N 34°07' E 135°08'0 0.0
2014-Nov-23 21:27N 34°07' E 135°08'0 0.0
2014-Nov-23 20:33N 34°07' E 135°08'0 0.0
2014-Nov-23 19:27N 34°07' E 135°08'0 0.0
2014-Nov-23 18:33N 34°07' E 135°08'0 0.0
2014-Nov-23 17:33N 34°07' E 135°08'0 0.0
2014-Nov-23 16:30N 34°07' E 135°08'0 0.0
2014-Nov-23 15:30N 34°07' E 135°08'0 0.0
2014-Nov-23 11:24N 34°07' E 135°08'0 0.0
2014-Nov-23 10:33N 34°07' E 135°08'0 0.0
2014-Nov-23 09:33N 34°07' E 135°08'0 0.0
2014-Nov-23 07:27N 34°07' E 135°08'5 5.2
2014-Nov-23 06:32N 34°04' E 135°03'24310.6
2014-Nov-22 07:32N 35°17' E 139°45'1010.7
2014-Nov-22 06:33N 35°27' E 139°47'10 1.3
2014-Nov-21 22:32N 35°32' E 139°59'0 0.0
2014-Nov-21 21:31N 35°32' E 139°59'0 0.0
2014-Nov-21 20:25N 35°32' E 139°59'0 0.0
2014-Nov-21 19:31N 35°32' E 139°59'0 0.0
2014-Nov-21 18:31N 35°32' E 139°59'0 0.0
2014-Nov-21 16:13N 35°32' E 139°59'4 0.8
2014-Nov-21 11:24N 35°30' E 139°55'1112.6
2014-Nov-21 10:33N 35°22' E 139°45'24710.6
2014-Nov-20 11:16N 34°00' E 135°02'911.7
2014-Nov-20 10:32N 34°08' E 135°06'1 0.6
2014-Nov-20 09:33N 34°08' E 135°06'0 0.1
2014-Nov-20 08:33N 34°08' E 135°07'0 0.0
2014-Nov-20 07:33N 34°08' E 135°07'0 0.0
2014-Nov-20 06:33N 34°08' E 135°07'0 0.0
2014-Nov-20 05:33N 34°08' E 135°07'0 0.0
2014-Nov-20 04:30N 34°08' E 135°07'0 0.0
2014-Nov-19 21:33N 34°08' E 135°07'1 0.6
2014-Nov-19 20:29N 34°08' E 135°07'0 0.1
2014-Nov-19 19:32N 34°08' E 135°07'0 0.0
2014-Nov-19 18:32N 34°08' E 135°07'0 0.0
2014-Nov-19 17:32N 34°08' E 135°07'0 0.0
2014-Nov-19 16:32N 34°08' E 135°07'0 0.1
2014-Nov-19 15:32N 34°08' E 135°07'0 0.1
2014-Nov-19 14:33N 34°08' E 135°07'23910.3
2014-Nov-18 15:16N 35°13' E 139°46'912.5
2014-Nov-18 14:33N 35°21' E 139°42'8 0.3
2014-Nov-17 12:33N 35°27' E 139°49'1010.4
2014-Nov-17 11:32N 35°17' E 139°46'  
Track history (hours):
 
Tides and Currents Weather Stations Pressure Air Temp Water Temp Dewpoint Dewpoint Depression Visibility Wind Speed Wind Dir Waves Ship Positions

Eiwamaru

Last reported at 2014-Nov-26 23:34 UTC. Time now 2014-Nov-27 00:18 UTC.
Position N 34°03' E 134°60'.

Length 80 m; draft 5.4 m.

Type: Tanker. MMSI: 431101045.

Date/timePositionNaut miles runAvg speedWind from/ knotsBaromVisibWave heightAir tempDewpointWater temp
2014-Nov-26 23:34N 34°03' E 134°60'  
2014-Nov-24 12:18N 34°02' E 135°02'7 1.0
2014-Nov-24 05:21N 34°07' E 135°08'0 0.0
2014-Nov-24 00:12N 34°07' E 135°08'0 0.0
2014-Nov-23 23:12N 34°07' E 135°08'0 0.0
2014-Nov-23 22:33N 34°07' E 135°08'0 0.0
2014-Nov-23 21:27N 34°07' E 135°08'0 0.0
2014-Nov-23 20:33N 34°07' E 135°08'0 0.0
2014-Nov-23 19:27N 34°07' E 135°08'0 0.0
2014-Nov-23 18:33N 34°07' E 135°08'0 0.0
2014-Nov-23 17:33N 34°07' E 135°08'0 0.0
2014-Nov-23 16:30N 34°07' E 135°08'0 0.0
2014-Nov-23 15:30N 34°07' E 135°08'0 0.0
2014-Nov-23 11:24N 34°07' E 135°08'0 0.0
2014-Nov-23 10:33N 34°07' E 135°08'0 0.0
2014-Nov-23 09:33N 34°07' E 135°08'0 0.0
2014-Nov-23 07:27N 34°07' E 135°08'5 5.2
2014-Nov-23 06:32N 34°04' E 135°03'24310.6
2014-Nov-22 07:32N 35°17' E 139°45'1010.7
2014-Nov-22 06:33N 35°27' E 139°47'10 1.3
2014-Nov-21 22:32N 35°32' E 139°59'0 0.0
2014-Nov-21 21:31N 35°32' E 139°59'0 0.0
2014-Nov-21 20:25N 35°32' E 139°59'0 0.0
2014-Nov-21 19:31N 35°32' E 139°59'0 0.0
2014-Nov-21 18:31N 35°32' E 139°59'0 0.0
2014-Nov-21 16:13N 35°32' E 139°59'4 0.8
2014-Nov-21 11:24N 35°30' E 139°55'1112.6
2014-Nov-21 10:33N 35°22' E 139°45'24710.6
2014-Nov-20 11:16N 34°00' E 135°02'911.7
2014-Nov-20 10:32N 34°08' E 135°06'1 0.6
2014-Nov-20 09:33N 34°08' E 135°06'0 0.1
2014-Nov-20 08:33N 34°08' E 135°07'0 0.0
2014-Nov-20 07:33N 34°08' E 135°07'0 0.0
2014-Nov-20 06:33N 34°08' E 135°07'0 0.0
2014-Nov-20 05:33N 34°08' E 135°07'0 0.0
2014-Nov-20 04:30N 34°08' E 135°07'0 0.0
2014-Nov-19 21:33N 34°08' E 135°07'1 0.6
2014-Nov-19 20:29N 34°08' E 135°07'0 0.1
2014-Nov-19 19:32N 34°08' E 135°07'0 0.0
2014-Nov-19 18:32N 34°08' E 135°07'0 0.0
2014-Nov-19 17:32N 34°08' E 135°07'0 0.0
2014-Nov-19 16:32N 34°08' E 135°07'0 0.1
2014-Nov-19 15:32N 34°08' E 135°07'0 0.1
2014-Nov-19 14:33N 34°08' E 135°07'23910.3
2014-Nov-18 15:16N 35°13' E 139°46'912.5
2014-Nov-18 14:33N 35°21' E 139°42'8 0.3
2014-Nov-17 12:33N 35°27' E 139°49'1010.4
2014-Nov-17 11:32N 35°17' E 139°46'  

Dump ship's entire track history